User: anonymous   Login
Location: Banska Bystrica
(0.0000°N, 19.1500°E)
Time: 00:02:01
(UTC+02:00)
Language:

Ariane H10-3 - Orbit

View from above orbital plane
View from above orbital plane
View from above satellite
View from above satellite

Ground track
Ground track

The orbit data is extracted from the following two-line orbital elements,

1 23732U 95067C   19111.48884282  .00001203  00000-0  76041-3 0  9998
2 23732   6.8851  94.5085 6810328 347.4941   1.6184  2.86656994221132
Epoch (UTC): 21 April 2019 11:43:56
Eccentricity: 0.6810328
inclination: 6.8851°
perigee height: 299 km
apogee height: 28810 km
right ascension of ascending node: 94.5085°
argument of perigee: 347.4941°
revolutions per day: 2.86656994
mean anomaly at epoch: 1.6184°
orbit number at epoch: 22113

The dashed part of the orbit path shows where the satellite is in the earth's shadow,  

DLR